Preview of NWS' New Version of Forecast
This preview is not operational and should not be used for support decisions.

Terminal Aerodrome Forecast (TAF)

Issued by National Weather Service (NWS)

                            
000
FTUS42 KCAE 220536
TAFOGB
TAF
KOGB 220536Z 2206/2306 VRB04KT P6SM SKC
      TEMPO 2208/2212 3SM BR=